Flag for United Kingdom Weather past 2 weeks in Sutton Coldfield, England, United Kingdom

Now
55 °F

Partly sunny.


Feels Like: 53 °F
Forecast: 50 / 60 °F
Wind: 9 mph from Northwest

Location: Birmingham / Airport

Current Time: Sep 3, 2015 at 8:38:43 PM

Latest Report: Sep 3, 2015 at 7:50 PM


Visibility: N/A

Pressure: 30.01 "Hg

Humidity: 67%

Dew point: 45 °F

Location of Sutton ColdfieldLocation

Historic Weather in Sutton Coldfield — Graph

°F

Sutton Coldfield temperature yesterday

Maximum temperature yesterday: 59 °F (at 12:20 PM)
Minimum temperature yesterday: 50 °F (at 2:50 AM)
Average temperature yesterday: 55 °F

Past Weeks' High & Low Weather Summary

 TemperatureHumidityPressure
High82 °F (Aug 22, 3:50 PM)100% (Aug 19, 10:20 PM)30.09 "Hg (Aug 19, 10:20 PM)
Low48 °F (Aug 28, 1:50 AM)43% (Aug 29, 3:20 PM)29.50 "Hg (Aug 23, 11:50 AM)
Average60 °F82%29.88 "Hg
* Reported Aug 19 7:20 PM — Sep 3 7:20 PM, Sutton Coldfield, Weather by CustomWeather, © 2015

Note: Actual official high and low records may vary slightly from our data, if they occured in-between our weather recording intervals... More about our weather records

Advertising

Sutton Coldfield weather history for previous 24 hours

 ConditionsComfort  
Time TempWeatherWind HumidityBarometerVisibility
7:20 PM
Thu, Sep 3
55 °FScattered clouds.10 mph67%30.01 "HgN/A
6:50 PM55 °FSunny.10 mph67%30.01 "Hg10 mi
6:20 PM55 °FPartly sunny.13 mph67%30.01 "HgN/A
5:50 PM57 °FPartly sunny.14 mph63%30.01 "HgN/A
5:20 PM57 °FPartly sunny.12 mph59%30.01 "HgN/A
4:20 PM57 °FScattered clouds.14 mph51%29.98 "HgN/A
3:50 PM57 °FScattered clouds.14 mph55%29.98 "HgN/A
3:20 PM57 °FScattered clouds.9 mph63%29.98 "HgN/A
2:50 PM55 °FMore clouds than sun.10 mph63%29.98 "HgN/A
2:20 PM57 °FScattered showers. Broken clouds.15 mph59%29.98 "HgN/A
1:50 PM59 °FPartly sunny.10 mph55%29.98 "HgN/A
1:20 PM59 °FScattered clouds.12 mph55%29.98 "HgN/A
12:50 PM59 °FScattered clouds.12 mph59%29.98 "HgN/A
12:20 PM57 °FPartly sunny.13 mph63%29.98 "HgN/A
11:50 AM57 °FBroken clouds.12 mph63%29.98 "HgN/A
11:20 AM57 °FScattered clouds.10 mph67%29.98 "HgN/A
10:50 AM55 °FScattered clouds.8 mph77%30.01 "HgN/A
10:20 AM54 °FPassing clouds.7 mph82%30.01 "HgN/A
9:50 AM54 °FPassing clouds.7 mph82%30.01 "HgN/A
9:20 AM54 °FBroken clouds.8 mph82%29.98 "HgN/A
8:50 AM54 °FPassing clouds.9 mph82%29.98 "HgN/A
8:20 AM52 °FPassing clouds.9 mph88%29.98 "HgN/A
7:50 AM52 °FPassing clouds.7 mph88%29.98 "HgN/A
7:20 AM52 °FPassing clouds.6 mph82%29.98 "HgN/A
6:50 AM52 °FPassing clouds.7 mph82%29.98 "HgN/A
6:20 AM50 °FPassing clouds.7 mph88%29.98 "HgN/A
5:50 AM50 °FLight rain. Partly cloudy.8 mph88%29.98 "HgN/A
5:20 AM52 °FPartly cloudy.6 mph82%29.98 "HgN/A
4:20 AM52 °FPassing clouds.6 mph82%29.98 "HgN/A
3:50 AM52 °FPassing clouds.7 mph82%29.98 "HgN/A
3:20 AM52 °FPassing clouds.7 mph82%29.98 "HgN/A
2:50 AM52 °FPassing clouds.6 mph82%30.01 "HgN/A
2:20 AM52 °FClear.6 mph82%30.01 "Hg10 mi
1:50 AM52 °FClear.5 mph82%30.01 "Hg10 mi
1:20 AM52 °FClear.6 mph82%30.01 "Hg10 mi
12:50 AM52 °FClear.6 mph82%30.04 "Hg10 mi
12:20 AM52 °FClear.6 mph82%30.04 "Hg10 mi
11:50 PM
Wed, Sep 2
52 °FPassing clouds.5 mph82%30.04 "HgN/A
10:20 PM54 °FClear.8 mph77%30.04 "Hg10 mi
9:50 PM54 °FPassing clouds.7 mph77%30.04 "HgN/A
9:20 PM55 °FPassing clouds.12 mph72%30.04 "HgN/A
8:50 PM55 °FScattered clouds.12 mph72%30.04 "HgN/A
8:20 PM55 °FSunny.8 mph77%30.04 "Hg10 mi
Weather by CustomWeather, © 2015

See weather overviewHow to use our weather pages